DMSP 5D-2 F13 DEB, 40415

Orbit data source: Space-Track

DMSP 5D-2 F13 DEB, 40415 is space debris in SSO originally from a launch on Fri, 24 Mar 1995 UTC launched from the Air Force Western Test Range (AFWTR). Debris objects in space refer to the collection of defunct objects orbiting the Earth. Examples of debris include non-operational satellites, rocket bodies, and fragments generated from explosions, collisions, or faulty payload assembly.

Loading next visibility...
Identifier
40415, 1995-015AC
Orbit
SSO
Last TLE update
1 day ago
Origin
Manufacturer
Unknown
Mission
Spacecraft
Bus & Motor
Unknown
Mass
Unknown
Launch date (UTC)
1995-03-24 (30 years ago)
Launch vehicle
Unknown
Launch site
Air Force Western Test Range (AFWTR)
Object type
Payload
Rocket body
Debris
Shape & HBR
Unknown
Radar Cross Section
Small (<0.1 m²)

Expand to show TLE details & history

TLE from 1 day ago
0 DMSP 5D-2 F13 DEB
1 40415U 95015AC  25197.98307058  .00001465  00000-0  61185-3 0  9998
2 40415  98.7462 220.0957 0004589 216.0309 144.0562 14.27721071538183
Epoch: 2025-07-16T23:35Z
TLE epoch observation values (Epoch: 2025-07-16T23:35:37.298Z)
Latitude
-0.00008°
Longitude
-68.86511°
Altitude
804.95 km
Speed
7.45 km/s
True Right ascension
14h 40m 22s
True Declination
0° 00' 00"
Sunlit
Object was in daylight at epoch
Visualization orbit readout
Latitude
-73.12364°
Longitude
82.15293°
Altitude
823.791 km
Speed
7.442 km/s
Apparent Right ascension
06h 08m 34s
Apparent Declination
-66° 27' 32"
Sunlit
Object is in daylight
Visualization observer readout
Local Sidereal Time
19:48:36
Azimuth
160.274° S
Elevation
-59.984°
Doppler factor
1
Orbital elements
Apogee altitude
799.801 km
Perigee altitude
793.216 km
Semi-major axis
7,174.646 km
Eccentricity
0.00046
Inclination
98.7462°
RAAN
220.0957°
Arg. of periapsis
216.0309°
True anomaly
144.08705°
Mean anomaly
144.0562°
Eccentric anomaly
144.07163°
Mean motion
3.57143 °/min
Orbital period
100.8 mins
BSTAR
0.00061185
Loading maneuver chart data...
Loading SW <> Apogee altitude chart data...
|